Tracking 29042 objects as of 22-Jun-2024
HD Live streaming from Space Station
objects crossing your sky now

JIADING 1

Track JIADING 1 now!
10-day predictions


NORAD ID: 43713
Int'l Code: 2018-094D
Perigee: 400.5 km
Apogee: 410.5 km
Inclination: 97.4 °
Period: 92.5 minutes
Semi major axis: 6776 km
RCS: Unknown
Launch date: November 19, 2018
Source: People's Republic of China (PRC)
Launch site: Jiuquan Satellite Launch Center, China (JSC)
Your satellite tracking list
Your tracking list is empty




NASA's NSSDC Master Catalog

Two Line Element Set (TLE):
1 43713U 18094D   24173.88283720  .00052969  00000-0  75038-3 0  9992
2 43713  97.3557 197.3769 0007378 204.6016 155.4888 15.56290448311820
Source of the keplerian elements: AFSPC